Hourly Weather Russki

Today, 16 April, Friday

Time Temperature Precipitation Wind Pressure Humidity
00:00 +7°C° 0 mm 6 mps 748 mmHg 91%
01:00 +7°C° 0 mm 6 mps 747 mmHg 91%
02:00 +5°C° 0 mm 6 mps 747 mmHg 90%
03:00 +5°C° 0.1 mm 6 mps 747 mmHg 90%
04:00 +5°C° 0.1 mm 6 mps 747 mmHg 89%
05:00 +5°C° 0.1 mm 6 mps 747 mmHg 89%
06:00 +5°C° 0.4 mm 6 mps 747 mmHg 89%
07:00 +5°C° 0.4 mm 6 mps 748 mmHg 89%
08:00 +7°C° 0.4 mm 6 mps 748 mmHg 89%
09:00 +7°C° 0 mm 6 mps 748 mmHg 87%
10:00 +8°C° 0 mm 5 mps 748 mmHg 86%
11:00 +9°C° 0 mm 5 mps 749 mmHg 84%
12:00 +9°C° 0 mm 6 mps 749 mmHg 82%
13:00 +10°C° 0 mm 6 mps 749 mmHg 81%
14:00 +10°C° 0 mm 6 mps 749 mmHg 79%
15:00 +10°C° 0.2 mm 6 mps 749 mmHg 81%
16:00 +10°C° 0.2 mm 6 mps 749 mmHg 82%
17:00 +10°C° 0.2 mm 6 mps 749 mmHg 84%
18:00 +10°C° 1.7 mm 5 mps 749 mmHg 87%
19:00 +9°C° 1.7 mm 5 mps 749 mmHg 90%
20:00 +10°C° 1.7 mm 4 mps 749 mmHg 93%
21:00 +8°C° 2.1 mm 4 mps 749 mmHg 93%
22:00 +8°C° 2.1 mm 4 mps 749 mmHg 93%
23:00 +9°C° 2.1 mm 3 mps 749 mmHg 92%

Tomorrow, 17 April, Saturday

Time Temperature Precipitation Wind Pressure Humidity
00:00 +9°C° 0.2 mm 3 mps 750 mmHg 93%
01:00 +8°C° 0.2 mm 3 mps 750 mmHg 94%
02:00 +8°C° 0.2 mm 3 mps 750 mmHg 94%
03:00 +8°C° 0.1 mm 3 mps 750 mmHg 94%
04:00 +8°C° 0.1 mm 3 mps 750 mmHg 95%
05:00 +8°C° 0.1 mm 3 mps 750 mmHg 95%
06:00 +7°C° 0.1 mm 4 mps 751 mmHg 92%
07:00 +8°C° 0.1 mm 4 mps 751 mmHg 89%
08:00 +10°C° 0.1 mm 4 mps 751 mmHg 86%
09:00 +11°C° 0 mm 4 mps 751 mmHg 80%
10:00 +12°C° 0 mm 4 mps 752 mmHg 74%
11:00 +12°C° 0 mm 4 mps 752 mmHg 67%
12:00 +13°C° 0 mm 4 mps 752 mmHg 67%
13:00 +13°C° 0 mm 4 mps 752 mmHg 66%
14:00 +13°C° 0 mm 4 mps 752 mmHg 66%
15:00 +13°C° 0.4 mm 4 mps 752 mmHg 70%
16:00 +12°C° 0.4 mm 3 mps 752 mmHg 75%
17:00 +12°C° 0.4 mm 3 mps 752 mmHg 79%
18:00 +11°C° 0.5 mm 3 mps 751 mmHg 80%
19:00 +11°C° 0.5 mm 4 mps 751 mmHg 80%
20:00 +11°C° 0.5 mm 4 mps 751 mmHg 80%
21:00 +9°C° 0 mm 5 mps 751 mmHg 81%
22:00 +9°C° 0 mm 5 mps 751 mmHg 81%
23:00 +8°C° 0 mm 5 mps 751 mmHg 82%

Day after tomorrow, 18 April, Sunday

Time Temperature Precipitation Wind Pressure Humidity
00:00 +8°C° 0 mm 5 mps 751 mmHg 82%
01:00 +7°C° 0 mm 5 mps 751 mmHg 82%
02:00 +6°C° 0 mm 5 mps 751 mmHg 82%
03:00 +6°C° 0 mm 5 mps 751 mmHg 82%
04:00 +5°C° 0 mm 5 mps 751 mmHg 81%
05:00 +5°C° 0 mm 4 mps 751 mmHg 81%
06:00 +5°C° 0 mm 5 mps 751 mmHg 78%
07:00 +6°C° 0 mm 5 mps 752 mmHg 75%
08:00 +7°C° 0 mm 5 mps 752 mmHg 72%
09:00 +7°C° 0 mm 5 mps 752 mmHg 71%
10:00 +8°C° 0 mm 5 mps 752 mmHg 69%
11:00 +8°C° 0 mm 5 mps 752 mmHg 68%
12:00 +8°C° 0 mm 5 mps 752 mmHg 68%
13:00 +9°C° 0 mm 5 mps 753 mmHg 69%
14:00 +9°C° 0 mm 5 mps 753 mmHg 69%
15:00 +8°C° 0 mm 5 mps 753 mmHg 72%
16:00 +7°C° 0 mm 4 mps 753 mmHg 75%
17:00 +6°C° 0 mm 4 mps 753 mmHg 78%
18:00 +6°C° 0 mm 4 mps 753 mmHg 80%
19:00 +5°C° 0 mm 3 mps 753 mmHg 82%
20:00 +5°C° 0 mm 3 mps 753 mmHg 85%
21:00 +5°C° 0 mm 3 mps 753 mmHg 85%
22:00 +5°C° 0 mm 3 mps 753 mmHg 86%
23:00 +5°C° 0 mm 3 mps 753 mmHg 86%

19 April, Monday

Time Temperature Precipitation Wind Pressure Humidity
00:00 +4°C° 0 mm 3 mps 753 mmHg 88%
01:00 +3°C° 0 mm 3 mps 753 mmHg 89%
02:00 +3°C° 0 mm 3 mps 753 mmHg 91%
03:00 +3°C° 0 mm 4 mps 753 mmHg 90%
04:00 +4°C° 0 mm 4 mps 753 mmHg 88%
05:00 +4°C° 0 mm 4 mps 753 mmHg 87%
06:00 +4°C° 0 mm 4 mps 753 mmHg 87%
07:00 +4°C° 0 mm 4 mps 753 mmHg 86%
08:00 +5°C° 0 mm 4 mps 753 mmHg 85%
09:00 +5°C° 0 mm 4 mps 753 mmHg 83%
10:00 +6°C° 0 mm 4 mps 753 mmHg 80%
11:00 +7°C° 0 mm 4 mps 753 mmHg 77%
12:00 +7°C° 0 mm 5 mps 752 mmHg 76%
13:00 +7°C° 0 mm 5 mps 752 mmHg 75%
14:00 +8°C° 0 mm 5 mps 752 mmHg 74%
15:00 +8°C° 0 mm 5 mps 752 mmHg 74%
16:00 +8°C° 0 mm 5 mps 751 mmHg 74%
17:00 +8°C° 0 mm 5 mps 751 mmHg 74%
18:00 +7°C° 0 mm 5 mps 751 mmHg 79%
19:00 +6°C° 0 mm 5 mps 751 mmHg 83%
20:00 +5°C° 0 mm 5 mps 751 mmHg 88%
21:00 +5°C° 0 mm 5 mps 750 mmHg 88%
22:00 +5°C° 0 mm 5 mps 750 mmHg 88%
23:00 +5°C° 0 mm 5 mps 749 mmHg 89%

20 April, Tuesday

Time Temperature Precipitation Wind Pressure Humidity
00:00 +5°C° 0.1 mm 5 mps 749 mmHg 90%
01:00 +5°C° 0.1 mm 5 mps 749 mmHg 91%
02:00 +3°C° 0.1 mm 5 mps 748 mmHg 92%
03:00 +5°C° 0.5 mm 5 mps 748 mmHg 91%
04:00 +5°C° 0.5 mm 5 mps 747 mmHg 91%
05:00 +5°C° 0.5 mm 5 mps 747 mmHg 91%
06:00 +5°C° 0.8 mm 5 mps 746 mmHg 91%
07:00 +5°C° 0.8 mm 5 mps 746 mmHg 92%
08:00 +5°C° 0.8 mm 5 mps 746 mmHg 92%
09:00 +4°C° 0.1 mm 6 mps 746 mmHg 89%
10:00 +5°C° 0.1 mm 6 mps 745 mmHg 86%
11:00 +5°C° 0.1 mm 6 mps 745 mmHg 84%
12:00 +7°C° 0 mm 6 mps 744 mmHg 82%
13:00 +7°C° 0 mm 6 mps 743 mmHg 80%
14:00 +6°C° 0 mm 7 mps 743 mmHg 78%
15:00 +6°C° 0.2 mm 7 mps 742 mmHg 80%
16:00 +5°C° 0.2 mm 7 mps 741 mmHg 81%
17:00 +5°C° 0.2 mm 7 mps 740 mmHg 83%
18:00 +4°C° 1.4 mm 7 mps 739 mmHg 87%
19:00 +3°C° 1.4 mm 7 mps 739 mmHg 91%
20:00 +2°C° 1.4 mm 7 mps 738 mmHg 95%
21:00 +2°C° 1 mm 7 mps 738 mmHg 96%
22:00 +2°C° 1 mm 6 mps 737 mmHg 96%
23:00 +1°C° 1 mm 6 mps 736 mmHg 96%

21 April, Wednesday

Time Temperature Precipitation Wind Pressure Humidity
00:00 +1°C° 0.4 mm 5 mps 736 mmHg 96%
01:00 +1°C° 0.4 mm 5 mps 736 mmHg 96%
02:00 +1°C° 0.4 mm 4 mps 735 mmHg 96%
03:00 +1°C° 0.4 mm 4 mps 735 mmHg 96%
04:00 +1°C° 0.4 mm 4 mps 735 mmHg 97%
05:00 +1°C° 0.4 mm 4 mps 734 mmHg 97%
06:00 +1°C° 0.5 mm 4 mps 734 mmHg 97%
07:00 +1°C° 0.5 mm 4 mps 734 mmHg 96%
08:00 +1°C° 0.5 mm 4 mps 734 mmHg 96%
09:00 +1°C° 0.6 mm 4 mps 734 mmHg 96%
10:00 +1°C° 0.6 mm 4 mps 735 mmHg 96%
11:00 +1°C° 0.6 mm 4 mps 735 mmHg 96%
12:00 +1°C° 0.5 mm 5 mps 735 mmHg 96%
13:00 +1°C° 0.5 mm 5 mps 736 mmHg 96%
14:00 +1°C° 0.5 mm 5 mps 736 mmHg 96%
15:00 +1°C° 0.3 mm 5 mps 737 mmHg 96%
16:00 +1°C° 0.3 mm 5 mps 737 mmHg 96%
17:00 +2°C° 0.3 mm 5 mps 738 mmHg 96%
18:00 +2°C° 0.2 mm 5 mps 739 mmHg 96%
19:00 +2°C° 0.2 mm 5 mps 739 mmHg 97%
20:00 +2°C° 0.2 mm 5 mps 740 mmHg 97%
21:00 +3°C° 0 mm 4 mps 740 mmHg 96%
22:00 +3°C° 0 mm 4 mps 741 mmHg 95%
23:00 +3°C° 0 mm 4 mps 741 mmHg 94%
Show more